星链-5889 (STARLINK-5889 )

导读 | 星芒AI

STARLINK-5889 是 SpaceX Starlink 项目中的一颗低轨通信卫星,属于第58批发射的星链卫星群。该卫星运行在约550公里高度的近地轨道,旨在为全球用户提供高速互联网服务。它采用先进的推进系统和激光通信技术,以提高网络效率和稳定性。作为 Starlink 卫星互联网系统的一部分,STARLINK-5889 支持偏远地区的宽带接入,助力实现全球网络覆盖目标。

基本信息
目录编号:
55953
目录名称:
STARLINK-5889
国际标识:
2023-037AR
轨道中心:
EARTH
卫星名称:
星链-5889
卫星全名:
星链-5889 (STARLINK-5889 )
卫星状态:
已陨落 最后检测时间 2025-05-31
发射日期:
2023-03-17 UTC
国别 :
美国 (US)
星等 :
--
轨道信息
数据来源 国际轨道数据
星历时间: 2025-05-31T14:02:27+0800
轨道信息已过期204天
半长轴: 6519.691km
偏心率: 0.0009371
轨道倾角: 69.981°
近地点辐角 261.317°
升交点赤经 236.260°
平近点角 126.993°
近地点: 135.446km
远地点: 147.666km
周期: 87.317分钟
每日圈数: 16.49158
详细信息
固有亮度:
5
最大亮度:
2.5
卫星平台:
Starlink v1.5
覆盖范围:
全球
运营商:
太空探索技术公司
运营商所在国:
美国
制造商(研发单位):
太空探索技术公司
制造商所在国:
美国
使用方式:
暂无
卫星简介
星链(Starlink)计划是由太空探索技术公司(SpaceX)提出的一个巨型低轨卫星互联网星座项目,计划在2019年至2024年间在太空搭建由约1.2万颗卫星组成的“星链”网络,其中1584颗将部署在地球上空550千米处的近地轨道,并从2020年开始工作。该卫星仍在工作。